Weather in Grantham

United Kingdom     52°54′58″N   0°38′30″E
temp.,
°C
wind,
m/s
gust,
m/s
humid.,
%
clouds,
%
prec.,
mm/h
press.,
hPa
HPBL,
m
23 april, fri
fri2301:00+2s339212 0.0 102949
04:00+2ssw228961 0.0 102911
07:00+3sse22806 0.0 103047
10:00+9se34505 0.0 1030445
13:00+13se34451 0.0 1029944
16:00+14se344589 0.0 10281231
19:00+10ese4672100 0.0 1028157
22:00+5se3477100 0.0 102958
24 april, sat
sat2401:00+4sse3381100 0.0 102937
04:00+3se2275100 0.0 102917
07:00+4ese1172100 0.0 103024
10:00+9e3460100 0.0 1030494
13:00+13e4553100 0.0 10291136
16:00+13e565599 0.0 10291213
19:00+9ene57720 0.0 1030603
22:00+3ene38960 0.0 1032173
25 april, sun
sun2501:00+2ne36964 0.0 1032121
04:00+1ne36955 0.0 1031110
07:00+4ne368692 0.0 1031302
10:00+9ne56636 0.0 10311051
13:00+11ene565477 0.0 10301270
16:00+10ene5556100 0.0 10291084
19:00+7ene576990 0.0 1029563
22:00+2ene34910 0.0 102962
26 april, mon
mon2601:00+1ne22935 0.0 102826
04:000nne229432 0.0 102718
07:00+2n1289100 0.0 102667
10:00+7ene2268100 0.0 1024589
13:00+11ene1254100 0.0 1021969
16:00+12ese1152100 0.0 10181118
19:00+10se3472100 0.0 101691
22:00+5sse357886 0.0 101674
27 april, tue
tue2701:00+6ssw257699 0.0 1014129
04:00+6sw3580100 0.1 1011172
07:00+6wsw239598 1.3 1010182
10:00+6ne3396100 0.8 1009304
13:00+6ene4594100 2.7 1010406
16:00+6ne5794100 0.3 1011864
19:00+6nne4894100 0.4 1012741
22:00+5nne4995100 0.1 1013498